Location: Proctor
(47.8934°N, 114.3048°W)
Time: 21:00:22
(UTC+00:00)

A-11 Canister half - All Passes

Search period start: 23 June 2024 00:00
Search period end: 03 July 2024 00:00
Orbit: 1514 x 1685 km, 47.2° (Epoch: 22 June)

Date Brightness Start Highest point End Pass type
(mag) Time Alt. Az. Time Alt. Az. Time Alt. Az.
23 Jun - 00:52:55 10° SW 01:02:30 49° SE 01:11:54 10° ENE daylight
23 Jun - 02:56:53 10° WSW 03:07:02 82° SSE 03:16:52 10° E daylight
23 Jun - 05:02:05 10° W 05:12:07 82° SSW 05:21:46 10° ESE visible
23 Jun - 07:07:16 10° WNW 07:16:30 48° SW 07:25:25 10° SE visible
23 Jun - 09:14:29 10° W 09:19:27 15° SW 09:24:21 10° SSW visible
23 Jun - 22:31:04 10° SSE 22:36:27 16° SE 22:41:47 10° E daylight
24 Jun - 00:30:02 10° SSW 00:39:33 47° SE 00:48:54 10° ENE daylight
24 Jun - 02:33:52 10° WSW 02:44:01 81° SSE 02:53:53 10° E daylight
24 Jun - 04:39:02 10° W 04:49:07 83° SSW 04:58:48 10° ESE visible
24 Jun - 06:44:13 10° WNW 06:53:34 50° SW 07:02:35 10° SE visible
24 Jun - 08:51:06 10° W 08:56:36 17° SW 09:02:00 10° SSW visible
24 Jun - 22:08:45 10° SSE 22:13:35 15° ESE 22:18:22 10° E daylight
25 Jun - 00:07:10 10° SSW 00:16:35 45° SE 00:25:53 10° ENE daylight
25 Jun - 02:10:51 10° WSW 02:21:00 80° SSE 02:30:54 10° E daylight
25 Jun - 04:16:00 10° W 04:26:06 84° S 04:35:50 10° ESE visible
25 Jun - 06:21:11 10° WNW 06:30:38 52° SSW 06:39:44 10° SE visible
25 Jun - 08:27:47 10° W 08:33:45 18° SW 08:39:36 10° SSW visible
25 Jun - 21:46:34 10° SSE 21:50:43 13° ESE 21:54:50 10° E daylight
25 Jun - 23:44:19 10° SSW 23:53:39 43° SE 00:02:51 10° ENE daylight
26 Jun - 01:47:49 10° WSW 01:57:59 79° SSE 02:07:54 10° E daylight
26 Jun - 03:52:57 10° W 04:03:06 85° S 04:12:51 10° ESE daylight
26 Jun - 05:58:08 10° WNW 06:07:41 54° SSW 06:16:53 10° SE visible
26 Jun - 08:04:32 10° W 08:10:53 20° SW 08:17:08 10° S visible
26 Jun - 21:24:35 10° SE 21:27:51 12° ESE 21:31:06 10° ESE daylight
26 Jun - 23:21:29 10° SSW 23:30:42 41° SE 23:39:49 10° ENE daylight
27 Jun - 01:24:49 10° WSW 01:34:59 77° SSE 01:44:55 10° E daylight
27 Jun - 03:29:56 10° W 03:40:04 86° S 03:49:53 10° E daylight
27 Jun - 05:35:06 10° WNW 05:44:44 56° SSW 05:54:01 10° SE visible
27 Jun - 07:41:18 10° W 07:48:02 21° SW 07:54:38 10° S visible
27 Jun - 21:03:02 10° SE 21:05:00 11° ESE 21:06:58 10° ESE daylight
27 Jun - 22:58:39 10° SSW 23:07:45 39° SE 23:16:47 10° ENE daylight
28 Jun - 01:01:49 10° WSW 01:11:58 76° SSE 01:21:55 10° E daylight
28 Jun - 03:06:52 10° W 03:17:03 86° S 03:26:54 10° E daylight
28 Jun - 05:12:03 10° WNW 05:21:47 59° SSW 05:31:09 10° SE visible
28 Jun - 07:18:05 10° W 07:25:10 23° SW 07:32:05 10° S visible
28 Jun - 22:35:51 10° SSW 22:44:49 37° SE 22:53:44 10° ENE daylight
29 Jun - 00:38:49 10° WSW 00:48:57 74° SSE 00:58:55 10° ENE daylight
29 Jun - 02:43:50 10° W 02:54:01 87° S 03:03:54 10° E daylight
29 Jun - 04:49:01 10° WNW 04:58:49 61° SSW 05:08:15 10° SE visible
29 Jun - 06:54:54 10° W 07:02:18 25° SW 07:09:30 10° S visible
29 Jun - 22:13:04 10° SSW 22:21:53 35° SE 22:30:40 10° ENE daylight
30 Jun - 00:15:50 10° WSW 00:25:57 72° SSE 00:35:55 10° ENE daylight
30 Jun - 02:20:48 10° W 02:31:00 87° S 02:40:55 10° E daylight
30 Jun - 04:25:59 10° WNW 04:35:50 63° SSW 04:45:21 10° SE visible
30 Jun - 06:31:45 10° W 06:39:24 26° SW 06:46:52 10° S visible
30 Jun - 21:50:18 10° SSW 21:58:57 34° SE 22:07:36 10° ENE daylight
30 Jun - 23:52:51 10° WSW 00:02:56 70° SSE 00:12:55 10° ENE daylight
01 Jul - 01:57:45 10° W 02:07:58 87° S 02:17:55 10° E daylight
01 Jul - 04:02:56 10° WNW 04:12:52 65° SSW 04:22:26 10° SE visible
01 Jul - 06:08:36 10° W 06:16:32 28° SW 06:24:14 10° S visible
01 Jul - 21:27:32 10° SSW 21:36:02 32° SE 21:44:31 10° ENE daylight
01 Jul - 23:29:53 10° SW 23:39:57 69° SSE 23:49:54 10° ENE daylight
02 Jul - 01:34:43 10° W 01:44:56 87° S 01:54:55 10° E daylight
02 Jul - 03:39:55 10° WNW 03:49:53 67° SSW 03:59:31 10° SE daylight
02 Jul - 05:45:29 10° WNW 05:53:38 30° SW 06:01:34 10° S visible
02 Jul - 21:04:49 10° S 21:13:07 30° SE 21:21:25 10° ENE daylight
02 Jul - 23:06:54 10° SW 23:16:57 67° SSE 23:26:54 10° ENE daylight
